GW2055 Weather Reports


Display with metric or nautical units.
time (UTC)temp
F
wind
direction
speed
MPH
gust
MPH
rain 1hr
in
rain 24hr
in
rain mn
in
humidity
%
barometer
mb
20260510051559 66 119 1.0 2.0 0.00 0.00 0.00 73 1012.2
20260510044602 67 0 0.0 3.0 0.00 0.00 0.00 69 1013.3
20260510043056 68 0 0.0 0.0 0.00 0.00 0.00 68 1013.1
20260510041555 68 0 0.0 2.0 0.00 0.00 0.00 65 1013.0
20260510040057 68 0 0.0 1.0 0.00 0.00 0.00 66 1013.0
20260510034617 67 295 0.0 1.0 0.00 0.00 0.00 68 1012.5
20260510033100 66 0 0.0 1.0 0.00 0.00 0.00 70 1012.1
20260510031600 66 0 0.0 0.0 0.00 0.00 0.00 69 1011.8
20260510030106 67 0 0.0 0.0 0.00 0.00 0.00 67 1011.5
20260510024559 68 0 0.0 0.0 0.00 0.00 0.00 63 1011.4
20260510023058 69 0 0.0 0.0 0.00 0.00 0.00 58 1011.0
20260510021603 71 0 0.0 0.0 0.00 0.00 0.00 55 1010.7
20260510020056 72 0 0.0 0.0 0.00 0.00 0.00 52 1010.5
20260510014602 73 0 0.0 0.0 0.00 0.00 0.00 50 1010.2
20260510013135 75 0 0.0 0.0 0.00 0.00 0.00 47 1009.7
20260510011556 76 0 0.0 0.0 0.00 0.00 0.00 43 1009.5
20260510010057 78 0 0.0 1.0 0.00 0.00 0.00 41 1009.2
20260510004559 79 0 0.0 2.0 0.00 0.00 0.00 39 1009.0
20260510003107 80 113 0.0 4.0 0.00 0.00 0.00 38 1008.8
20260510001559 81 128 0.0 3.0 0.00 0.00 0.00 36 1008.5
20260510000126 81 111 0.0 4.0 0.00 0.00 0.00 34 1008.5
20260509234556 82 123 0.0 4.0 0.00 0.01 0.00 32 1008.7
20260509233059 82 0 1.0 8.0 0.00 0.01 0.00 31 1008.7
20260509231616 83 186 1.0 8.0 0.00 0.01 0.00 31 1008.8
20260509230108 83 116 1.0 5.0 0.00 0.01 0.00 33 1008.7
20260509224600 83 75 1.0 4.0 0.00 0.01 0.00 34 1008.7
20260509223111 83 115 1.0 7.0 0.00 0.01 0.00 33 1008.8
20260509221619 85 118 1.0 5.0 0.00 0.01 0.00 35 1008.9
20260509220100 85 0 1.0 7.0 0.00 0.01 0.00 35 1008.9
20260509214603 84 0 0.0 4.0 0.00 0.01 0.00 31 1009.1
20260509213057 84 0 1.0 6.0 0.00 0.01 0.00 33 1009.3
20260509211604 86 0 0.0 3.0 0.00 0.01 0.00 33 1009.5
20260509210100 85 0 0.0 4.0 0.00 0.01 0.00 35 1009.6
20260509204603 86 119 0.0 4.0 0.00 0.01 0.00 34 1009.7
20260509203055 85 0 1.0 6.0 0.00 0.01 0.00 33 1009.9
20260509201559 86 122 0.0 4.0 0.00 0.01 0.00 36 1010.1
20260509200110 86 0 0.0 3.0 0.00 0.01 0.00 35 1010.2
20260509194558 85 193 0.0 3.0 0.00 0.01 0.00 36 1010.3
20260509193056 85 0 0.0 5.0 0.00 0.01 0.00 34 1010.4
20260509191556 84 96 0.0 3.0 0.00 0.01 0.00 36 1010.4
20260509190059 84 181 0.0 4.0 0.00 0.01 0.00 35 1010.5
20260509184558 84 222 1.0 4.0 0.00 0.01 0.00 40 1010.5
20260509183105 83 109 1.0 4.0 0.00 0.01 0.00 42 1010.7
20260509181555 83 0 1.0 4.0 0.00 0.01 0.00 45 1010.9
20260509180056 82 206 0.0 6.0 0.00 0.01 0.00 42 1011.0
20260509174558 82 0 0.0 6.0 0.00 0.01 0.00 56 1011.2
20260509173104 81 0 0.0 6.0 0.00 0.01 0.00 56 1011.4
20260509171557 81 0 0.0 4.0 0.00 0.01 0.00 56 1011.3
20260509170100 80 112 1.0 6.0 0.00 0.01 0.00 58 1011.3
20260509164559 79 0 1.0 4.0 0.00 0.01 0.00 58 1011.4
20260509163102 78 0 0.0 3.0 0.00 0.01 0.00 64 1011.4
20260509161603 77 202 0.0 3.0 0.00 0.01 0.00 67 1011.4
20260509160056 75 0 0.0 4.0 0.00 0.01 0.00 68 1011.4
20260509154556 74 0 0.0 3.0 0.00 0.01 0.00 73 1011.2
20260509153058 73 0 0.0 2.0 0.00 0.01 0.00 75 1011.1
20260509151600 72 73 0.0 4.0 0.00 0.01 0.00 76 1011.0
20260509144558 68 0 0.0 3.0 0.00 0.01 0.00 80 1011.2
20260509143102 67 115 0.0 2.0 0.00 0.01 0.00 81 1011.1
20260509141601 65 0 0.0 1.0 0.00 0.01 0.00 83 1010.9
20260509140106 63 0 0.0 0.0 0.00 0.01 0.00 84 1010.9
20260509134604 61 0 0.0 2.0 0.00 0.01 0.00 81 1011.0
20260509133100 58 0 0.0 0.0 0.00 0.01 0.00 80 1010.9
20260509131559 57 0 0.0 1.0 0.00 0.01 0.00 80 1010.8
20260509130100 55 0 0.0 1.0 0.00 0.01 0.00 80 1010.8
20260509124556 54 0 0.0 0.0 0.00 0.01 0.00 80 1010.6
20260509123136 52 0 0.0 0.0 0.00 0.01 0.00 81 1010.3
20260509121600 50 0 0.0 0.0 0.00 0.01 0.00 81 1010.2
20260509120059 49 0 0.0 0.0 0.00 0.01 0.00 81 1010.1
20260509114555 49 0 0.0 0.0 0.00 0.01 0.00 82 1010.1
20260509113058 49 0 0.0 0.0 0.00 0.01 0.00 82 1010.0
20260509111558 49 0 0.0 0.0 0.00 0.01 0.00 82 1010.0
20260509110057 49 0 0.0 0.0 0.00 0.01 0.00 82 1010.1
20260509104557 50 0 0.0 0.0 0.00 0.01 0.00 82 1009.9
20260509103103 50 0 0.0 0.0 0.00 0.01 0.00 82 1009.9
20260509101601 50 0 0.0 0.0 0.00 0.01 0.00 82 1010.1
20260509100059 51 0 0.0 0.0 0.00 0.01 0.00 82 1010.2
20260509094558 51 0 0.0 0.0 0.00 0.01 0.00 82 1010.2
20260509093057 51 0 0.0 0.0 0.00 0.01 0.00 82 1010.3
20260509091557 51 0 0.0 0.0 0.00 0.01 0.00 82 1010.5
20260509090101 52 0 0.0 1.0 0.00 0.01 0.00 82 1010.5
20260509084557 51 0 0.0 0.0 0.00 0.01 0.00 82 1010.3
20260509083102 52 0 0.0 0.0 0.00 0.01 0.00 82 1010.4
20260509081600 52 0 0.0 0.0 0.00 0.01 0.00 82 1010.4
20260509080100 53 0 0.0 0.0 0.00 0.01 0.00 82 1010.3
20260509074607 53 0 0.0 0.0 0.00 0.01 0.00 82 1010.4
20260509073056 53 0 0.0 0.0 0.00 0.01 0.00 82 1010.4
20260509071612 53 0 0.0 0.0 0.00 0.01 0.00 83 1010.1
20260509070058 54 0 0.0 0.0 0.00 0.01 0.00 82 1010.4
20260509064601 54 0 0.0 0.0 0.00 0.01 0.00 83 1010.7
20260509063059 54 0 0.0 0.0 0.00 0.01 0.00 83 1010.8
20260509061603 55 0 0.0 0.0 0.00 0.01 0.00 83 1010.6
20260509054609 56 0 0.0 0.0 0.00 0.01 0.00 83 1010.5
20260509053100 56 0 0.0 0.0 0.00 0.01 0.00 83 1010.5